Wilmington, OH

11:20 AM EDT on April 24, 2017 (GMT -0400)
Airborne

Weather History for KILN - October, 2011

Change the Weather History Date:

Thursday, October 6, 2011

  Actual Average (KFFO) Record (KFFO)
Temperature  
Mean Temperature 64 °F -  
Max Temperature 80 °F 67 °F 87 °F (2007)
Min Temperature 51 °F 44 °F 32 °F (2004)
Growing Degree Days 14 (Base 50)    
Moisture  
Dew Point 50 °F    
Average Humidity 68    
Maximum Humidity 92    
Minimum Humidity 37    
Precipitation  
Precipitation 0.00 in - - ()
Sea Level Pressure  
Sea Level Pressure 30.30 in    
Wind  
Wind Speed 3 mph (ESE)    
Max Wind Speed 9 mph    
Max Gust Speed -    
Visibility 9 miles    
Events      
Averages and records for this station are not official NWS values.
T = Trace of Precipitation, MM = Missing Value Source: NWS Daily Summary

Daily Weather History Graph

Daily Weather History Graph

Search for Another Location

Airport or City:

Trip Planner

Search our weather history database for the weather conditions in past years. The results will help you decide how hot, cold, wet, or windy it might be!

Date:

Astronomy

Oct. 06, 2011 Rise Set
Actual Time 7:35 AM EDT 7:10 PM EDT
Civil Twilight 7:08 AM EDT 7:36 PM EDT
Nautical Twilight 6:37 AM EDT 8:08 PM EDT
Astronomical Twilight 6:06 AM EDT 8:39 PM EDT
Moon 4:21 PM EDT (10/6) 2:24 AM EDT (10/6)
Length of Visible Light 12h 28m
Length of Day
11h 34m
Waxing Gibbous, 75% of the Moon is Illuminated
Oct 6
Waxing Gibbous
Oct 11
Full
Oct 19
Last Quarter
Oct 26
New
Nov 2
First Quarter

Hourly Weather History & Observations

Time (EDT) Temp. Dew Point Humidity Pressure Visibility Wind Dir Wind Speed Gust Speed Precip Events Conditions
12:54 AM 55.0 °F 50.0 °F 83% 30.27 in 10.0 mi SE 3.5 mph - N/A   Clear
1:54 AM 57.0 °F 51.1 °F 81% 30.27 in 10.0 mi Calm Calm - N/A   Clear
2:54 AM 53.1 °F 50.0 °F 89% 30.28 in 10.0 mi ESE 3.5 mph - N/A   Clear
3:54 AM 52.0 °F 48.9 °F 89% 30.28 in 10.0 mi SE 3.5 mph - N/A   Clear
4:54 AM 53.1 °F 50.0 °F 89% 30.28 in 10.0 mi Calm Calm - N/A   Clear
5:54 AM 55.0 °F 50.0 °F 83% 30.29 in 9.0 mi Calm Calm - N/A   Clear
6:54 AM 52.0 °F 48.9 °F 89% 30.30 in 7.0 mi SE 3.5 mph - N/A   Clear
7:54 AM 51.1 °F 48.9 °F 92% 30.32 in 5.0 mi Calm Calm - N/A   Clear
8:54 AM 57.0 °F 53.1 °F 87% 30.33 in 4.0 mi Calm Calm - N/A   Clear
10:54 AM 69.1 °F 54.0 °F 58% 30.34 in 10.0 mi SE 9.2 mph - N/A   Clear
11:54 AM 71.1 °F 52.0 °F 51% 30.33 in 10.0 mi SE 5.8 mph - N/A   Clear
12:54 PM 73.9 °F 51.1 °F 45% 30.33 in 10.0 mi South 5.8 mph - N/A   Clear
1:54 PM 75.0 °F 51.1 °F 43% 30.30 in 10.0 mi Calm Calm - N/A   Clear
2:54 PM 78.1 °F 51.1 °F 39% 30.29 in 10.0 mi NNW 8.1 mph - N/A   Clear
4:54 PM 77.0 °F 48.9 °F 37% 30.28 in 10.0 mi Calm Calm - N/A   Clear
5:54 PM 75.9 °F 48.0 °F 37% 30.28 in 10.0 mi NE 5.8 mph - N/A   Clear
6:54 PM 73.0 °F 50.0 °F 44% 30.29 in 10.0 mi Calm Calm - N/A   Clear
7:54 PM 63.0 °F 52.0 °F 67% 30.30 in 10.0 mi East 3.5 mph - N/A   Clear
8:54 PM 62.1 °F 51.1 °F 67% 30.31 in 10.0 mi ENE 3.5 mph - N/A   Clear
9:54 PM 59.0 °F 50.0 °F 72% 30.32 in 10.0 mi East 3.5 mph - N/A   Clear
10:54 PM 59.0 °F 50.0 °F 72% 30.32 in 10.0 mi ESE 5.8 mph - N/A   Clear
11:54 PM 55.0 °F 50.0 °F 83% 30.32 in 10.0 mi Calm Calm - N/A   Clear